Location: Cicognara
(44.9500°N, 10.4667°E)
Time: 09:17:37
(UTC+00:00)

Iridium 2 - Pass Details

Date: 20 June 2021
Orbit: 502 x 511 km, 85.5° (Epoch: 04 August)

Event Time Altitude Azimuth Distance (km) Brightness Sun altitude
Exits shadow 22:12:18 48° 221° (SW) 665 3.9 -19.9°
Maximum altitude 22:13:06 63° 275° (W) 567 3.9 -19.9°
Drops below altitude 10° 22:16:50 10° 358° (N) 1,725 7.5 -20.1°
Sets 22:18:59 0° 2° (N) 2,614 8.6 -20.2°
